Regional Weather Roundup
Issued by NWS

Home | Current Version | Previous Version | Graphics & Text | Print | Product List | Glossary On
Versions: 1 2 3 4 5 6 7 8 9 10 11 12 13 14 15 16 17 18 19 20 21 22 23 24 25 26 27 28 29 30 31 32 33 34 35 36 37 38 39 40 41 42 43 44 45 46 47 48 49 50
657
ASUS44 KJAN 260503
RWRMS

MISSISSIPPI HOURLY WEATHER ROUNDUP
NATIONAL WEATHER SERVICE JACKSON MS
1200 AM CDT SAT JUL 26 2014

NOTE: "FAIR: INDICATES FEW OR NO CLOUDS BELOW 12,000 FEET WITH NO
SIGNIFICANT WEATHER AND/OR OBSTRUCTIONS TO VISIBILITY.

MSZ001>002-007>008-010>013-018>021-025>028-034>036-260600-
NORTHWEST MISSISSIPPI

CITY           SKY/WX    TMP DP  RH WIND       PRES   REMARKS
CLARKSDALE     FAIR      72  72 100 CALM      30.01R
CLEVELAND      FAIR      73  70  90 S6        30.00R
GREENWOOD      CLEAR     69  66  90 NE3       30.00S
GREENVILLE     CLEAR     73  70  90 CALM      29.99R
GRENADA          N/A     66  66 100 CALM      30.01S
OLIVE BRANCH   CLEAR     70  70 100 S5        30.01R
OXFORD         FAIR      66  66 100 CALM      30.02S
TUNICA         PTCLDY    70  68  94 CALM      30.01R
$$

MSZ003>006-009-014>017-022>024-029>033-037>039-260600-
NORTHEAST MISSISSIPPI

CITY           SKY/WX    TMP DP  RH WIND       PRES   REMARKS
BELMONT        FAIR      68  66  95 CALM      30.03R
COLUMBUS AFB   CLEAR     67  66  97 CALM      30.02R
CORINTH        FAIR      68  66  94 CALM      30.01S
GOLDN TRIANGLE CLEAR     66  63  88 SW3       30.02R
STARKVILLE     FAIR      64  63  94 CALM      30.01S
TUPELO         PTCLDY    71  66  84 CALM      30.01R
$$

MSZ040-058-260600-
CENTRAL MISSISSIPPI

CITY           SKY/WX    TMP DP  RH WIND       PRES   REMARKS
JACKSON INTL   CLEAR     74  71  91 CALM      30.02R
JACKSON HAWKNS CLEAR     75  70  84 CALM      30.03R
MERIDIAN KEY   CLEAR     72  70  93 CALM      30.02S
MERIDIAN NAS   CLEAR     73  70  90 CALM      30.02S
RAYMOND        FAIR      73  68  83 CALM      30.02S HAZE
VICKSBURG      CLEAR     73  70  90 CALM      30.00S FOG
$$

MSZ059>079-260600-
SOUTH MISSISSIPPI

CITY           SKY/WX    TMP DP  RH WIND       PRES   REMARKS
BROOKHAVEN     FAIR      73  73 100 CALM      30.05S FOG
COLUMBIA       FAIR      75  73  94 CALM      30.02S FOG
HATTIESBURG    CLEAR     79  74  84 CALM      30.03S
MCCOMB         PTCLDY    78  74  87 SE5       30.03F
NATCHEZ        CLEAR     77  73  88 S5        30.02F
PINE BELT      CLEAR     75  72  88 SW3       30.04S
$$

MSZ080>082-260600-
COASTAL MISSISSIPPI

CITY           SKY/WX    TMP DP  RH WIND       PRES   REMARKS
BILOXI         CLOUDY    79  75  89 SW6       30.01F
PASCAGOULA     MOCLDY    78  75  90 S5        30.02F
GULFPORT       CLOUDY    82  75  79 CALM      30.02F
$$



USA.gov is the U.S. government's official web portal to all federal, state and local government web resources and services.